Fairfield, OH

12:23 AM EST on February 24, 2017 (GMT -0500)
Butler County Regional

Weather History for KHAO - October, 2013

Change the Weather History Date:

Monday, October 21, 2013

  Actual Average (KLUK) Record (KLUK)
Temperature  
Mean Temperature 53 °F -  
Max Temperature 69 °F 65 °F 83 °F (1979)
Min Temperature 37 °F 43 °F 25 °F (1974)
Degree Days  
Heating Degree Days 12    
Growing Degree Days 3 (Base 50)    
Moisture  
Dew Point 42 °F    
Average Humidity 71    
Maximum Humidity 97    
Minimum Humidity 39    
Precipitation  
Precipitation 0.00 in - - ()
Sea Level Pressure  
Sea Level Pressure 29.98 in    
Wind  
Wind Speed 5 mph (SSW)    
Max Wind Speed 13 mph    
Max Gust Speed 21 mph    
Visibility 10 miles    
Events Rain    
Averages and records for this station are not official NWS values.
T = Trace of Precipitation, MM = Missing Value Source: NWS Daily Summary

Daily Weather History Graph

Daily Weather History Graph

Search for Another Location

Airport or City:

Trip Planner

Search our weather history database for the weather conditions in past years. The results will help you decide how hot, cold, wet, or windy it might be!

Date:

Astronomy

Oct. 21, 2013 Rise Set
Actual Time 7:54 AM EDT 6:50 PM EDT
Civil Twilight 7:27 AM EDT 7:17 PM EDT
Nautical Twilight 6:55 AM EDT 7:48 PM EDT
Astronomical Twilight 6:24 AM EDT 8:19 PM EDT
Moon 8:43 PM EDT (10/21) 10:27 AM EDT (10/21)
Length of Visible Light 11h 50m
Length of Day
10h 55m
Waning Gibbous, 93% of the Moon is Illuminated
Oct 21
Waning Gibbous
Oct 26
Last Quarter
Nov 3
New
Nov 10
First Quarter
Nov 17
Full

Hourly Weather History & Observations

Time (EDT) Temp. Windchill Dew Point Humidity Pressure Visibility Wind Dir Wind Speed Gust Speed Precip Events Conditions
12:53 AM 44.1 °F 42.5 °F 39.0 °F 82% 30.02 in 10.0 mi SE 3.5 mph - N/A   Clear
1:53 AM 41.0 °F 39.0 °F 39.0 °F 93% 30.02 in 10.0 mi SE 3.5 mph - N/A   Clear
2:53 AM 39.0 °F 35.7 °F 37.0 °F 93% 30.03 in 10.0 mi ESE 4.6 mph - N/A   Clear
3:53 AM 42.1 °F 40.2 °F 39.0 °F 89% 30.02 in 10.0 mi ESE 3.5 mph - N/A   Clear
4:53 AM 37.0 °F - 35.1 °F 93% 30.03 in 10.0 mi Calm Calm - N/A   Clear
5:53 AM 37.0 °F - 35.1 °F 93% 30.03 in 10.0 mi Calm Calm - N/A   Clear
6:53 AM 39.0 °F - 37.0 °F 93% 30.04 in 10.0 mi Calm Calm - N/A   Clear
7:53 AM 37.9 °F 35.5 °F 37.0 °F 97% 30.03 in 10.0 mi ESE 3.5 mph - N/A   Clear
8:53 AM 44.1 °F 42.5 °F 41.0 °F 89% 30.04 in 10.0 mi East 3.5 mph - N/A   Clear
9:53 AM 53.1 °F - 41.0 °F 64% 30.03 in 10.0 mi SSW 4.6 mph - N/A   Clear
10:53 AM 60.1 °F - 42.1 °F 51% 30.01 in 10.0 mi SW 8.1 mph - N/A   Clear
11:53 AM 62.1 °F - 43.0 °F 50% 30.00 in 10.0 mi SW 9.2 mph 20.7 mph N/A   Clear
12:53 PM 64.9 °F - 44.1 °F 47% 29.98 in 10.0 mi Variable 6.9 mph 18.4 mph N/A   Clear
1:53 PM 66.9 °F - 43.0 °F 42% 29.94 in 10.0 mi SSW 9.2 mph 18.4 mph N/A   Clear
2:53 PM 69.1 °F - 43.0 °F 39% 29.93 in 10.0 mi Variable 6.9 mph 16.1 mph N/A   Mostly Cloudy
3:53 PM 64.0 °F - 41.0 °F 43% 29.92 in 10.0 mi SSW 9.2 mph 16.1 mph N/A   Overcast
4:53 PM 66.0 °F - 42.1 °F 42% 29.91 in 10.0 mi SW 9.2 mph 18.4 mph N/A   Overcast
5:53 PM 64.0 °F - 42.1 °F 45% 29.91 in 10.0 mi SSW 9.2 mph - N/A   Overcast
6:53 PM 61.0 °F - 42.1 °F 50% 29.92 in 10.0 mi SSW 5.8 mph - N/A   Overcast
7:53 PM 59.0 °F - 43.0 °F 55% 29.92 in 10.0 mi SW 3.5 mph - N/A   Overcast
8:53 PM 55.9 °F - 46.0 °F 69% 29.92 in 10.0 mi Calm Calm - N/A   Overcast
9:53 PM 55.9 °F - 46.9 °F 72% 29.94 in 10.0 mi West 6.9 mph 16.1 mph N/A   Overcast
10:40 PM 53.6 °F - 48.2 °F 82% 29.96 in 10.0 mi WNW 12.7 mph - 0.00 in Rain Light Rain
10:53 PM 53.1 °F - 48.0 °F 83% 29.96 in 10.0 mi WNW 5.8 mph - 0.00 in Rain Light Rain
11:17 PM 51.8 °F - 48.2 °F 88% 29.96 in 10.0 mi NW 10.4 mph 16.1 mph 0.00 in Rain Light Rain
11:37 PM 50.0 °F - 44.6 °F 82% 29.97 in 8.0 mi NW 12.7 mph - 0.00 in Rain Light Rain
11:53 PM 48.9 °F - 44.1 °F 83% 29.97 in 10.0 mi NW 12.7 mph 16.1 mph 0.00 in Rain Light Rain